WIF1365 ENBR-ENTO

Flight info

Callsign WIF1365
Flight time 0h 35m
Altitude 23000
Route TINIG DCT NULNO DCT ULMUG
Aircraft DH8D/M-SDE2E3FGRY/H

Departure

Time 2026-05-07 15:46
Airport Bergen Airport, Flesland (ENBR)

Arrival

Time 2026-05-07 16:21
Airport Sandefjord Airport, Torp (ENTO)
Time Latitude Longitude Altitude Speed Heading
2026-05-07 15:30 60.28658 5.22930 167 ft 0 kts 80°
2026-05-07 15:35 60.28658 5.22931 166 ft 0 kts 80°
2026-05-07 15:36 60.28659 5.22945 166 ft 6 kts 81°
2026-05-07 15:36 60.28665 5.23024 169 ft 3 kts 81°
2026-05-07 15:36 60.28665 5.23027 169 ft 2 kts 88°
2026-05-07 15:36 60.28664 5.22997 167 ft 2 kts 80°
2026-05-07 15:37 60.28662 5.22968 167 ft 2 kts 80°
2026-05-07 15:37 60.28659 5.22939 166 ft 2 kts 81°
2026-05-07 15:37 60.28657 5.22910 166 ft 2 kts 80°
2026-05-07 15:37 60.28654 5.22880 166 ft 2 kts 80°
2026-05-07 15:38 60.28652 5.22850 166 ft 2 kts 81°
2026-05-07 15:38 60.28651 5.22841 166 ft 0 kts 81°
2026-05-07 15:40 60.28651 5.22844 166 ft 1 kts 79°
2026-05-07 15:40 60.28666 5.22834 166 ft 6 kts 289°
2026-05-07 15:40 60.28675 5.22692 166 ft 11 kts 268°
2026-05-07 15:40 60.28663 5.22548 165 ft 9 kts 260°
2026-05-07 15:41 60.28680 5.22434 165 ft 8 kts 290°
2026-05-07 15:41 60.28715 5.22355 164 ft 8 kts 336°
2026-05-07 15:41 60.28780 5.22325 165 ft 11 kts 348°
2026-05-07 15:41 60.28874 5.22294 165 ft 17 kts 350°
2026-05-07 15:42 60.28983 5.22257 165 ft 15 kts 349°
2026-05-07 15:42 60.29086 5.22222 164 ft 15 kts 351°
2026-05-07 15:42 60.29198 5.22189 162 ft 17 kts 352°
2026-05-07 15:42 60.29333 5.22136 160 ft 23 kts 346°
2026-05-07 15:43 60.29492 5.22084 157 ft 21 kts 351°
2026-05-07 15:43 60.29634 5.22038 155 ft 19 kts 350°
2026-05-07 15:43 60.29759 5.21995 154 ft 16 kts 351°
2026-05-07 15:43 60.29868 5.21956 154 ft 14 kts 348°
2026-05-07 15:44 60.29961 5.21929 155 ft 12 kts 350°
2026-05-07 15:44 60.30035 5.21883 156 ft 10 kts 315°
2026-05-07 15:44 60.30040 5.21738 157 ft 12 kts 258°
2026-05-07 15:44 60.30000 5.21594 157 ft 12 kts 184°
2026-05-07 15:45 60.29972 5.21603 157 ft 2 kts 169°
2026-05-07 15:45 60.29927 5.21619 156 ft 35 kts 171°
2026-05-07 15:45 60.29356 5.21810 159 ft 123 kts 170°
2026-05-07 15:45 60.28371 5.22096 378 ft 155 kts 176°
2026-05-07 15:46 60.26311 5.22595 1753 ft 150 kts 169°
2026-05-07 15:46 60.25297 5.22947 2383 ft 150 kts 169°
2026-05-07 15:46 60.24286 5.23294 2995 ft 150 kts 169°
2026-05-07 15:47 60.23291 5.23797 3524 ft 156 kts 150°
2026-05-07 15:47 60.22560 5.25585 3786 ft 176 kts 115°
2026-05-07 15:47 60.22098 5.27838 4414 ft 180 kts 113°
2026-05-07 15:47 60.21627 5.30174 5053 ft 183 kts 113°
2026-05-07 15:48 60.21158 5.32550 5710 ft 185 kts 114°
2026-05-07 15:48 60.20686 5.34953 6384 ft 188 kts 114°
2026-05-07 15:48 60.20216 5.37367 7030 ft 191 kts 114°
2026-05-07 15:48 60.19730 5.39863 7692 ft 194 kts 114°
2026-05-07 15:49 60.19242 5.42377 8342 ft 198 kts 114°
2026-05-07 15:49 60.18723 5.45041 8733 ft 218 kts 114°
2026-05-07 15:49 60.18153 5.47974 9159 ft 231 kts 114°
2026-05-07 15:49 60.17563 5.51037 9700 ft 239 kts 113°
2026-05-07 15:50 60.16964 5.54141 10319 ft 244 kts 113°
2026-05-07 15:50 60.16353 5.57305 10926 ft 249 kts 114°
2026-05-07 15:50 60.15723 5.60558 11539 ft 253 kts 114°
2026-05-07 15:50 60.15087 5.63833 12163 ft 257 kts 114°
2026-05-07 15:51 60.14434 5.67192 12790 ft 261 kts 115°
2026-05-07 15:51 60.13774 5.70585 13375 ft 264 kts 115°
2026-05-07 15:51 60.13096 5.74059 13942 ft 268 kts 114°
2026-05-07 15:51 60.12417 5.77536 14497 ft 271 kts 115°
2026-05-07 15:52 60.11727 5.81061 15034 ft 274 kts 115°
2026-05-07 15:52 60.11028 5.84623 15516 ft 279 kts 114°
2026-05-07 15:52 60.10310 5.88277 16047 ft 282 kts 115°
2026-05-07 15:52 60.09589 5.91936 16511 ft 286 kts 115°
2026-05-07 15:53 60.08861 5.95627 16988 ft 289 kts 115°
2026-05-07 15:53 60.08126 5.99352 17437 ft 292 kts 114°
2026-05-07 15:53 60.07371 6.03163 17864 ft 296 kts 114°
2026-05-07 15:53 60.06613 6.06984 18333 ft 298 kts 114°
2026-05-07 15:54 60.05856 6.10792 18745 ft 300 kts 114°
2026-05-07 15:54 60.05085 6.14664 19138 ft 303 kts 114°
2026-05-07 15:54 60.04300 6.18599 19548 ft 305 kts 114°
2026-05-07 15:54 60.03506 6.22568 19876 ft 309 kts 114°
2026-05-07 15:55 60.02712 6.26532 20220 ft 311 kts 114°
2026-05-07 15:55 60.01902 6.30570 20553 ft 313 kts 115°
2026-05-07 15:55 60.01086 6.34622 20745 ft 320 kts 115°
2026-05-07 15:55 60.00201 6.38708 20804 ft 329 kts 117°
2026-05-07 15:56 59.99200 6.42876 20828 ft 338 kts 118°
2026-05-07 15:56 59.98156 6.47183 20843 ft 347 kts 118°
2026-05-07 15:56 59.97102 6.51553 20855 ft 354 kts 118°
2026-05-07 15:56 59.96039 6.55966 20862 ft 360 kts 118°
2026-05-07 15:57 59.94947 6.60503 20862 ft 365 kts 118°
2026-05-07 15:57 59.93841 6.65093 20866 ft 370 kts 118°
2026-05-07 15:57 59.92722 6.69733 20863 ft 372 kts 118°
2026-05-07 15:57 59.91598 6.74385 20863 ft 373 kts 118°
2026-05-07 15:58 59.90464 6.79072 20859 ft 376 kts 118°
2026-05-07 15:58 59.89332 6.83744 20854 ft 377 kts 118°
2026-05-07 15:58 59.88182 6.88479 20839 ft 378 kts 118°
2026-05-07 15:58 59.87040 6.93172 20832 ft 380 kts 118°
2026-05-07 15:59 59.85881 6.97921 20816 ft 381 kts 118°
2026-05-07 15:59 59.84732 7.02620 20788 ft 381 kts 118°
2026-05-07 15:59 59.83574 7.07348 20796 ft 381 kts 118°
2026-05-07 15:59 59.82422 7.12044 20806 ft 381 kts 118°
2026-05-07 16:00 59.81267 7.16738 20808 ft 381 kts 118°
2026-05-07 16:00 59.80103 7.21462 20810 ft 381 kts 118°
2026-05-07 16:00 59.78933 7.26196 20812 ft 381 kts 118°
2026-05-07 16:00 59.77771 7.30889 20818 ft 381 kts 118°
2026-05-07 16:01 59.76613 7.35556 20827 ft 381 kts 118°
2026-05-07 16:01 59.75425 7.40332 20833 ft 380 kts 118°
2026-05-07 16:01 59.74257 7.45021 20841 ft 380 kts 118°
2026-05-07 16:01 59.73094 7.49677 20852 ft 380 kts 118°
2026-05-07 16:02 59.71926 7.54345 20846 ft 380 kts 118°
2026-05-07 16:02 59.70744 7.59055 20846 ft 380 kts 118°
2026-05-07 16:02 59.69579 7.63694 20844 ft 380 kts 118°
2026-05-07 16:02 59.68405 7.68354 20855 ft 379 kts 119°
2026-05-07 16:03 59.67215 7.73068 20859 ft 379 kts 119°
2026-05-07 16:03 59.66045 7.77695 20853 ft 379 kts 119°
2026-05-07 16:03 59.64858 7.82376 20859 ft 379 kts 119°
2026-05-07 16:03 59.63671 7.87052 20858 ft 380 kts 119°
2026-05-07 16:04 59.62488 7.91696 20869 ft 380 kts 119°
2026-05-07 16:04 59.61305 7.96336 20872 ft 381 kts 119°
2026-05-07 16:04 59.60104 8.01032 20868 ft 381 kts 119°
2026-05-07 16:04 59.58913 8.05684 20878 ft 381 kts 119°
2026-05-07 16:05 59.57718 8.10340 20866 ft 382 kts 118°
2026-05-07 16:05 59.56519 8.15003 20869 ft 382 kts 119°
2026-05-07 16:05 59.55333 8.19604 20879 ft 382 kts 118°
2026-05-07 16:05 59.54127 8.24274 20870 ft 378 kts 118°
2026-05-07 16:06 59.52942 8.28866 20874 ft 372 kts 118°
2026-05-07 16:06 59.51769 8.33398 20875 ft 368 kts 118°
2026-05-07 16:06 59.50620 8.37827 20868 ft 364 kts 118°
2026-05-07 16:06 59.49468 8.42257 20866 ft 361 kts 118°
2026-05-07 16:07 59.48334 8.46602 20859 ft 359 kts 118°
2026-05-07 16:07 59.47199 8.50949 20861 ft 357 kts 119°
2026-05-07 16:07 59.46057 8.55311 20861 ft 355 kts 119°
2026-05-07 16:07 59.44931 8.59590 20854 ft 354 kts 119°
2026-05-07 16:08 59.43809 8.63851 20856 ft 353 kts 119°
2026-05-07 16:08 59.42675 8.68154 20856 ft 351 kts 120°
2026-05-07 16:08 59.41552 8.72402 20855 ft 350 kts 120°
2026-05-07 16:08 59.40438 8.76612 20855 ft 349 kts 120°
2026-05-07 16:09 59.39306 8.80876 20516 ft 360 kts 120°
2026-05-07 16:09 59.38121 8.85323 19930 ft 374 kts 120°
2026-05-07 16:09 59.36914 8.89851 19336 ft 377 kts 120°
2026-05-07 16:09 59.35704 8.94399 18717 ft 374 kts 120°
2026-05-07 16:10 59.34507 8.98889 18110 ft 371 kts 119°
2026-05-07 16:10 59.33316 9.03348 17494 ft 368 kts 120°
2026-05-07 16:10 59.32135 9.07757 16866 ft 365 kts 119°
2026-05-07 16:10 59.30955 9.12150 16243 ft 362 kts 119°
2026-05-07 16:11 59.29797 9.16453 15626 ft 359 kts 119°
2026-05-07 16:11 59.28643 9.20733 15002 ft 356 kts 119°
2026-05-07 16:11 59.27497 9.24976 14395 ft 353 kts 118°
2026-05-07 16:11 59.26359 9.29179 13792 ft 350 kts 118°
2026-05-07 16:12 59.25228 9.33348 13179 ft 347 kts 118°
2026-05-07 16:12 59.24103 9.37487 12571 ft 343 kts 118°
2026-05-07 16:12 59.22990 9.41573 11958 ft 340 kts 118°
2026-05-07 16:12 59.21890 9.45609 11367 ft 337 kts 118°
2026-05-07 16:13 59.20797 9.49608 10772 ft 331 kts 118°
2026-05-07 16:13 59.19734 9.53502 10160 ft 324 kts 118°
2026-05-07 16:13 59.18879 9.57498 9506 ft 318 kts 103°
2026-05-07 16:13 59.18729 9.61737 8887 ft 309 kts 90°
2026-05-07 16:14 59.18718 9.65835 8272 ft 301 kts 90°
2026-05-07 16:14 59.18715 9.69920 7661 ft 295 kts 90°
2026-05-07 16:14 59.18711 9.73849 7053 ft 290 kts 90°
2026-05-07 16:14 59.18704 9.77759 6429 ft 286 kts 90°
2026-05-07 16:15 59.18695 9.81547 6039 ft 274 kts 90°
2026-05-07 16:15 59.18686 9.85131 5978 ft 252 kts 89°
2026-05-07 16:15 59.18677 9.88400 5938 ft 236 kts 90°
2026-05-07 16:15 59.18668 9.91551 5894 ft 227 kts 90°
2026-05-07 16:16 59.18657 9.94559 5880 ft 217 kts 90°
2026-05-07 16:16 59.18642 9.97510 5864 ft 219 kts 90°
2026-05-07 16:16 59.18792 10.00496 5508 ft 228 kts 76°
2026-05-07 16:16 59.19404 10.03291 5257 ft 219 kts 55°
2026-05-07 16:17 59.20447 10.05365 4947 ft 212 kts 40°
2026-05-07 16:17 59.21572 10.07049 4727 ft 203 kts 33°
2026-05-07 16:17 59.22797 10.08397 4469 ft 194 kts 29°
2026-05-07 16:17 59.23918 10.09644 4262 ft 185 kts 31°
2026-05-07 16:18 59.24958 10.11209 3777 ft 188 kts 44°
2026-05-07 16:18 59.25834 10.13109 3298 ft 195 kts 51°
2026-05-07 16:18 59.26694 10.15188 2806 ft 200 kts 50°
2026-05-07 16:18 59.27656 10.17057 2585 ft 190 kts 40°
2026-05-07 16:19 59.28275 10.19167 2386 ft 181 kts 88°
2026-05-07 16:19 59.27810 10.21269 2398 ft 176 kts 135°
2026-05-07 16:19 59.26765 10.22617 2277 ft 185 kts 148°
2026-05-07 16:19 59.25641 10.23924 1964 ft 181 kts 149°
2026-05-07 16:20 59.24582 10.25113 1636 ft 178 kts 150°
2026-05-07 16:20 59.23454 10.25901 1270 ft 167 kts 174°
2026-05-07 16:20 59.22318 10.25874 948 ft 157 kts 181°
2026-05-07 16:20 59.21243 10.25828 666 ft 156 kts 180°
2026-05-07 16:21 59.20161 10.25845 417 ft 149 kts 181°
2026-05-07 16:21 59.19214 10.25850 300 ft 123 kts 178°
2026-05-07 16:21 59.18519 10.25868 281 ft 69 kts 180°
2026-05-07 16:21 59.18250 10.25847 274 ft 17 kts 218°
2026-05-07 16:22 59.18179 10.25695 274 ft 12 kts 224°
2026-05-07 16:22 59.18124 10.25582 274 ft 8 kts 227°
2026-05-07 16:22 59.18090 10.25540 274 ft 3 kts 189°
2026-05-07 16:22 59.18072 10.25538 274 ft 3 kts 181°
2026-05-07 16:23 59.18016 10.25536 273 ft 10 kts 175°
2026-05-07 16:23 59.17961 10.25519 272 ft 6 kts 245°
2026-05-07 16:23 59.17961 10.25472 273 ft 1 kts 271°
2026-05-07 16:23 59.17961 10.25459 273 ft 1 kts 270°
2026-05-07 16:24 59.17961 10.25427 273 ft 0 kts 271°